sat.trackr.live / text

‹ back to catalog

DONGPO 01

NORAD 53453 · 2022-098K

PAYLOAD ACTIVE UNKNOWN

§ Identity

Operator
Country
PRC
Launch date
2022-08-10
Launch site
TAISC
Launch vehicle
Mass (kg)
RCS (m²)

External: N2YO · Heavens-Above · Gunter

§ Orbital elements

Epoch: 2026-09-20T22:03:55.989792Z

Period
89.36 min
Inclination
97.5785°
Eccentricity
0.0008089
Mean motion
16.11548590 rev/d
Perigee alt
237.2 km
Apogee alt
248.0 km
Semi-major
6,620.7 km
B*
7.7188e-4
RAAN
45.7870°
Arg perigee
265.7289°
Mean anomaly
94.3071°
Rev number
22,992

§ Raw data

DONGPO 011 53453U 22098K   26263.91939803  .00792100  36082-3  77188-3 0  99972 53453  97.5785  45.7870 0008089 265.7289  94.3071 16.11548590229926

JSON: /api/v1/satellites/53453 · /tle

For live sub-satellite position, see the globe view (requires WebGL).

§ Visibility from observer

Set your observer location to see the next 7 days of passes ≥ 10°. The values pass through the URL so the page stays shareable.

No JS? Fill the form by hand. The geolocation button needs JavaScript.

§ Radio — SatNOGS DB

ModeDescriptionDownlinkUplink
FM Jillin Mysterious Pip 1.616 GHz

1 transmitter · refreshed weekly from db.satnogs.org